Location: Newark
(40.3667°N, 3.7500°W)
Time: 00:59:23
(UTC+00:00)

ISS - Visible Passes

Search period start: 18 October 2019 00:00
Search period end: 28 October 2019 00:00
Orbit: 411 x 421 km, 51.6° (Epoch: 17 October)

Date Brightness Start Highest point End Pass type
(mag) Time Alt. Az. Time Alt. Az. Time Alt. Az.
23 Oct -1.0 05:34:13 10° S 05:36:45 20° SE 05:39:17 10° E visible
24 Oct -0.6 04:47:16 10° SSE 04:48:23 11° SE 04:49:30 10° ESE visible
25 Oct -3.2 05:32:48 10° SW 05:36:06 58° SE 05:39:25 10° ENE visible
26 Oct -2.2 04:46:47 28° SSE 04:47:37 32° SE 04:50:39 10° ENE visible
27 Oct -0.5 04:00:51 13° E 04:00:51 13° E 04:01:34 10° E visible
27 Oct -3.5 05:33:48 22° W 05:35:39 50° NNW 05:38:57 10° NE visible
